Time,TemperatureF,DewpointF,PressureIn,WindDirection,WindDirectionDegrees,WindSpeedMPH,WindSpeedGustMPH,Humidity,HourlyPrecipIn,Conditions,Clouds,dailyrainin,SolarRadiationWatts/m^2,SoftwareType,DateUTC
2013-02-04 00:00:00,19.0,13.6,29.86,WSW,242,3.0,8.0,79,0.00,,,0.00,0,WxPro DR1,2013-02-04 05:00:00,
2013-02-04 00:01:00,19.0,13.6,29.86,WSW,245,2.0,8.0,79,0.00,,,0.00,0,WxPro DR1,2013-02-04 05:01:00,
2013-02-04 00:03:00,19.0,13.4,29.86,WSW,240,4.0,10.0,78,0.00,,,0.00,0,WxPro DR1,2013-02-04 05:03:00,
2013-02-04 00:08:00,19.1,13.4,29.86,WSW,257,3.0,13.0,78,0.00,,,0.00,0,WxPro DR1,2013-02-04 05:08:00,
2013-02-04 00:13:00,19.1,13.1,29.86,WSW,248,3.0,13.0,77,0.00,,,0.00,0,WxPro DR1,2013-02-04 05:13:00,
2013-02-04 00:18:00,19.1,13.1,29.86,WNW,288,4.0,12.0,77,0.00,,,0.00,0,WxPro DR1,2013-02-04 05:18:00,
2013-02-04 00:23:00,19.1,13.1,29.86,SSW,213,1.0,14.0,77,0.00,,,0.00,0,WxPro DR1,2013-02-04 05:23:00,
2013-02-04 00:28:00,19.0,13.0,29.86,WSW,246,1.0,14.0,77,0.00,,,0.00,0,WxPro DR1,2013-02-04 05:28:00,
2013-02-04 00:33:00,18.9,12.9,29.86,West,271,7.0,10.0,77,0.00,,,0.00,0,WxPro DR1,2013-02-04 05:33:00,
2013-02-04 00:38:00,18.9,12.9,29.86,West,276,10.0,10.0,77,0.00,,,0.00,0,WxPro DR1,2013-02-04 05:38:00,
2013-02-04 00:43:00,18.8,12.9,29.86,WSW,253,1.0,10.0,77,0.00,,,0.00,0,WxPro DR1,2013-02-04 05:43:00,
2013-02-04 00:48:00,18.8,12.8,29.86,SW,228,2.0,9.0,77,0.00,,,0.00,0,WxPro DR1,2013-02-04 05:48:00,
2013-02-04 00:53:00,18.8,12.8,29.86,SW,217,0.0,9.0,77,0.00,,,0.00,0,WxPro DR1,2013-02-04 05:53:00,
2013-02-04 00:58:00,18.9,12.9,29.86,WSW,244,0.0,9.0,77,0.00,,,0.00,0,WxPro DR1,2013-02-04 05:58:00,
2013-02-04 01:03:00,18.8,12.8,29.86,WSW,249,0.0,7.0,77,0.00,,,0.00,0,WxPro DR1,2013-02-04 06:03:00,
2013-02-04 01:08:00,18.8,13.0,29.86,South,190,5.0,7.0,78,0.00,,,0.00,0,WxPro DR1,2013-02-04 06:08:00,
2013-02-04 01:13:00,18.7,12.9,29.86,West,260,9.0,9.0,78,0.00,,,0.00,0,WxPro DR1,2013-02-04 06:13:00,
2013-02-04 01:18:00,18.7,13.0,29.86,West,267,6.0,9.0,78,0.00,,,0.00,0,WxPro DR1,2013-02-04 06:18:00,
2013-02-04 01:23:00,18.6,12.9,29.86,SW,216,0.0,9.0,78,0.00,,,0.00,0,WxPro DR1,2013-02-04 06:23:00,
2013-02-04 01:28:00,18.6,12.9,29.86,WSW,241,2.0,9.0,78,0.00,,,0.00,0,WxPro DR1,2013-02-04 06:28:00,
2013-02-04 01:33:00,18.5,12.8,29.86,SW,214,1.0,6.0,78,0.00,,,0.00,0,WxPro DR1,2013-02-04 06:33:00,
2013-02-04 01:38:00,18.5,12.8,29.86,SW,217,1.0,9.0,78,0.00,,,0.00,0,WxPro DR1,2013-02-04 06:38:00,
2013-02-04 01:43:00,18.5,13.1,29.86,WSW,252,0.0,9.0,79,0.00,,,0.00,0,WxPro DR1,2013-02-04 06:43:00,
2013-02-04 01:48:00,18.5,13.1,29.86,SW,219,0.0,7.0,79,0.00,,,0.00,0,WxPro DR1,2013-02-04 06:48:00,
2013-02-04 01:53:00,18.5,13.1,29.86,SSW,203,0.0,9.0,79,0.00,,,0.00,0,WxPro DR1,2013-02-04 06:53:00,
2013-02-04 01:58:00,18.5,13.1,29.86,WSW,244,2.0,10.0,79,0.00,,,0.00,0,WxPro DR1,2013-02-04 06:58:00,
2013-02-04 02:03:00,18.6,13.2,29.87,SW,231,4.0,14.0,79,0.00,,,0.00,0,WxPro DR1,2013-02-04 07:03:00,
2013-02-04 02:08:00,18.7,13.3,29.87,SSW,199,3.0,14.0,79,0.00,,,0.00,0,WxPro DR1,2013-02-04 07:08:00,
2013-02-04 02:13:00,18.8,13.4,29.87,West,261,0.0,9.0,79,0.00,,,0.00,0,WxPro DR1,2013-02-04 07:13:00,
2013-02-04 02:18:00,18.8,13.4,29.87,South,180,2.0,10.0,79,0.00,,,0.00,0,WxPro DR1,2013-02-04 07:18:00,
2013-02-04 02:23:00,18.8,13.4,29.87,SW,223,4.0,10.0,79,0.00,,,0.00,0,WxPro DR1,2013-02-04 07:23:00,
2013-02-04 02:28:00,18.9,13.5,29.87,SSW,209,2.0,7.0,79,0.00,,,0.00,0,WxPro DR1,2013-02-04 07:28:00,
2013-02-04 02:33:00,19.0,13.6,29.87,WSW,244,1.0,8.0,79,0.00,,,0.00,0,WxPro DR1,2013-02-04 07:33:00,
2013-02-04 02:38:00,19.0,13.6,29.87,West,262,0.0,12.0,79,0.00,,,0.00,0,WxPro DR1,2013-02-04 07:38:00,
2013-02-04 02:43:00,19.1,13.6,29.87,SW,215,7.0,12.0,79,0.00,,,0.00,0,WxPro DR1,2013-02-04 07:43:00,
2013-02-04 02:48:00,19.1,13.7,29.88,West,259,3.0,10.0,79,0.00,,,0.00,0,WxPro DR1,2013-02-04 07:48:00,
2013-02-04 02:53:00,19.1,13.7,29.88,WSW,248,2.0,8.0,79,0.00,,,0.00,0,WxPro DR1,2013-02-04 07:53:00,
2013-02-04 02:58:00,19.2,13.8,29.88,WSW,238,3.0,14.0,79,0.00,,,0.00,0,WxPro DR1,2013-02-04 07:58:00,
2013-02-04 03:03:00,19.2,13.5,29.88,West,273,4.0,14.0,78,0.00,,,0.00,0,WxPro DR1,2013-02-04 08:03:00,
2013-02-04 03:08:00,19.2,13.5,29.88,SW,223,3.0,12.0,78,0.00,,,0.00,0,WxPro DR1,2013-02-04 08:08:00,
2013-02-04 03:13:00,19.1,13.4,29.88,West,267,6.0,14.0,78,0.00,,,0.00,0,WxPro DR1,2013-02-04 08:13:00,
2013-02-04 03:18:00,19.1,13.4,29.88,WSW,237,5.0,17.0,78,0.00,,,0.00,0,WxPro DR1,2013-02-04 08:18:00,
2013-02-04 03:23:00,19.1,13.2,29.88,NW,319,1.0,17.0,77,0.00,,,0.00,0,WxPro DR1,2013-02-04 08:23:00,
2013-02-04 03:28:00,19.1,13.1,29.88,WSW,240,6.0,16.0,77,0.00,,,0.00,0,WxPro DR1,2013-02-04 08:28:00,
2013-02-04 03:33:00,19.1,13.4,29.88,WSW,251,12.0,18.0,78,0.00,,,0.00,0,WxPro DR1,2013-02-04 08:33:00,
2013-02-04 03:38:00,19.1,13.4,29.88,SSW,201,0.0,18.0,78,0.00,,,0.00,0,WxPro DR1,2013-02-04 08:38:00,
2013-02-04 03:43:00,19.0,13.3,29.88,SSW,194,3.0,13.0,78,0.00,,,0.00,0,WxPro DR1,2013-02-04 08:43:00,
2013-02-04 03:48:00,19.0,13.6,29.89,West,271,6.0,13.0,79,0.00,,,0.00,0,WxPro DR1,2013-02-04 08:48:00,
2013-02-04 03:53:00,19.0,13.6,29.89,SW,218,7.0,15.0,79,0.00,,,0.00,0,WxPro DR1,2013-02-04 08:53:00,
2013-02-04 03:58:00,19.0,13.9,29.89,West,261,2.0,15.0,80,0.00,,,0.00,0,WxPro DR1,2013-02-04 08:58:00,
2013-02-04 04:03:00,19.0,13.9,29.89,SW,225,0.0,15.0,80,0.00,,,0.00,0,WxPro DR1,2013-02-04 09:03:00,
2013-02-04 04:08:00,19.0,13.9,29.89,WNW,287,6.0,14.0,80,0.00,,,0.00,0,WxPro DR1,2013-02-04 09:08:00,
2013-02-04 04:13:00,19.0,13.6,29.89,SW,224,5.0,15.0,79,0.00,,,0.00,0,WxPro DR1,2013-02-04 09:13:00,
2013-02-04 04:18:00,19.1,13.7,29.89,WSW,241,1.0,16.0,79,0.00,,,0.00,0,WxPro DR1,2013-02-04 09:18:00,
2013-02-04 04:23:00,19.1,13.7,29.89,SSW,207,3.0,23.0,79,0.00,,,0.00,0,WxPro DR1,2013-02-04 09:23:00,
2013-02-04 04:28:00,19.2,13.5,29.89,SW,223,7.0,23.0,78,0.00,,,0.00,0,WxPro DR1,2013-02-04 09:28:00,
2013-02-04 04:33:00,19.3,13.5,29.89,SW,228,0.0,20.0,78,0.00,,,0.00,0,WxPro DR1,2013-02-04 09:33:00,
2013-02-04 04:38:00,19.2,13.5,29.90,WSW,257,5.0,16.0,78,0.00,,,0.00,0,WxPro DR1,2013-02-04 09:38:00,
2013-02-04 04:43:00,19.1,13.7,29.90,WSW,244,12.0,17.0,79,0.00,,,0.00,0,WxPro DR1,2013-02-04 09:43:00,
2013-02-04 04:48:00,19.1,13.7,29.90,West,259,4.0,17.0,79,0.00,,,0.00,0,WxPro DR1,2013-02-04 09:48:00,
2013-02-04 04:53:00,19.1,13.4,29.90,WSW,249,7.0,13.0,78,0.00,,,0.00,0,WxPro DR1,2013-02-04 09:53:00,
2013-02-04 04:58:00,19.0,13.3,29.91,WSW,249,5.0,14.0,78,0.00,,,0.00,0,WxPro DR1,2013-02-04 09:58:00,
2013-02-04 05:03:00,18.9,13.2,29.91,West,267,4.0,17.0,78,0.00,,,0.00,0,WxPro DR1,2013-02-04 10:03:00,
2013-02-04 05:08:00,18.8,13.1,29.91,WNW,293,12.0,17.0,78,0.00,,,0.00,0,WxPro DR1,2013-02-04 10:08:00,
2013-02-04 05:13:00,18.7,13.3,29.91,WSW,258,2.0,18.0,79,0.00,,,0.00,0,WxPro DR1,2013-02-04 10:13:00,
2013-02-04 05:18:00,18.5,13.1,29.90,West,280,12.0,18.0,79,0.00,,,0.00,0,WxPro DR1,2013-02-04 10:18:00,
2013-02-04 05:23:00,18.5,12.8,29.91,WSW,256,6.0,17.0,78,0.00,,,0.00,0,WxPro DR1,2013-02-04 10:23:00,
2013-02-04 05:28:00,18.4,12.4,29.91,WSW,245,4.0,17.0,77,0.00,,,0.00,0,WxPro DR1,2013-02-04 10:28:00,
2013-02-04 05:33:00,18.3,12.3,29.91,WSW,255,1.0,15.0,77,0.00,,,0.00,0,WxPro DR1,2013-02-04 10:33:00,
2013-02-04 05:38:00,18.2,12.2,29.91,SW,234,5.0,16.0,77,0.00,,,0.00,0,WxPro DR1,2013-02-04 10:38:00,
2013-02-04 05:43:00,18.1,12.1,29.91,West,260,4.0,16.0,77,0.00,,,0.00,0,WxPro DR1,2013-02-04 10:43:00,
2013-02-04 05:48:00,18.0,12.0,29.91,WSW,240,2.0,16.0,77,0.00,,,0.00,0,WxPro DR1,2013-02-04 10:48:00,
2013-02-04 05:53:00,17.7,11.8,29.92,SW,230,2.0,16.0,77,0.00,,,0.00,0,WxPro DR1,2013-02-04 10:53:00,
2013-02-04 05:58:00,17.5,11.9,29.92,West,270,1.0,16.0,78,0.00,,,0.00,0,WxPro DR1,2013-02-04 10:58:00,
2013-02-04 06:03:00,17.3,11.6,29.92,West,259,2.0,13.0,78,0.00,,,0.00,0,WxPro DR1,2013-02-04 11:03:00,
2013-02-04 06:08:00,17.2,11.5,29.92,WSW,255,9.0,13.0,78,0.00,,,0.00,0,WxPro DR1,2013-02-04 11:08:00,
2013-02-04 06:13:00,17.1,11.4,29.92,WSW,255,5.0,14.0,78,0.00,,,0.00,0,WxPro DR1,2013-02-04 11:13:00,
2013-02-04 06:18:00,17.0,11.5,29.92,WSW,241,4.0,14.0,79,0.00,,,0.00,0,WxPro DR1,2013-02-04 11:18:00,
2013-02-04 06:23:00,16.9,11.5,29.93,SW,218,1.0,12.0,79,0.00,,,0.00,0,WxPro DR1,2013-02-04 11:23:00,
2013-02-04 06:28:00,16.8,11.2,29.93,West,264,5.0,14.0,78,0.00,,,0.00,0,WxPro DR1,2013-02-04 11:28:00,
2013-02-04 06:33:00,16.8,11.1,29.93,SW,217,4.0,14.0,78,0.00,,,0.00,0,WxPro DR1,2013-02-04 11:33:00,
2013-02-04 06:38:00,16.8,11.1,29.93,SSW,211,3.0,13.0,78,0.00,,,0.00,0,WxPro DR1,2013-02-04 11:38:00,
2013-02-04 06:43:00,16.7,11.1,29.93,WSW,237,4.0,12.0,78,0.00,,,0.00,0,WxPro DR1,2013-02-04 11:43:00,
2013-02-04 06:48:00,16.7,11.1,29.93,SSW,213,1.0,12.0,78,0.00,,,0.00,0,WxPro DR1,2013-02-04 11:48:00,
2013-02-04 06:53:00,16.7,11.0,29.94,WSW,240,1.0,13.0,78,0.00,,,0.00,0,WxPro DR1,2013-02-04 11:53:00,
2013-02-04 06:58:00,16.6,11.0,29.94,SW,214,1.0,13.0,78,0.00,,,0.00,0,WxPro DR1,2013-02-04 11:58:00,
2013-02-04 07:03:00,16.6,11.0,29.94,WSW,254,3.0,13.0,78,0.00,,,0.00,0,WxPro DR1,2013-02-04 12:03:00,
2013-02-04 07:08:00,16.7,11.1,29.94,SW,219,0.0,12.0,78,0.00,,,0.00,0,WxPro DR1,2013-02-04 12:08:00,
2013-02-04 07:13:00,16.8,11.1,29.94,West,263,8.0,12.0,78,0.00,,,0.00,0,WxPro DR1,2013-02-04 12:13:00,
2013-02-04 07:18:00,16.8,11.1,29.94,WSW,255,14.0,14.0,78,0.00,,,0.00,0,WxPro DR1,2013-02-04 12:18:00,
2013-02-04 07:23:00,16.9,11.2,29.94,West,277,2.0,18.0,78,0.00,,,0.00,5,WxPro DR1,2013-02-04 12:23:00,
2013-02-04 07:28:00,17.0,11.0,29.94,SW,223,0.0,18.0,77,0.00,,,0.00,7,WxPro DR1,2013-02-04 12:28:00,
2013-02-04 07:33:00,17.1,11.1,29.94,West,275,4.0,12.0,77,0.00,,,0.00,9,WxPro DR1,2013-02-04 12:33:00,
2013-02-04 07:38:00,17.1,11.2,29.95,WSW,246,1.0,11.0,77,0.00,,,0.00,11,WxPro DR1,2013-02-04 12:38:00,
2013-02-04 07:43:00,17.3,11.4,29.95,WSW,253,2.0,13.0,77,0.00,,,0.00,14,WxPro DR1,2013-02-04 12:43:00,
2013-02-04 07:48:00,17.5,11.6,29.95,WSW,241,2.0,13.0,77,0.00,,,0.00,28,WxPro DR1,2013-02-04 12:48:00,
2013-02-04 07:53:00,17.6,11.7,29.95,SW,224,0.0,13.0,77,0.00,,,0.00,37,WxPro DR1,2013-02-04 12:53:00,
2013-02-04 07:58:00,17.8,11.5,29.95,West,272,9.0,13.0,76,0.00,,,0.00,32,WxPro DR1,2013-02-04 12:58:00,
2013-02-04 08:03:00,18.0,11.7,29.95,West,272,6.0,15.0,76,0.00,,,0.00,53,WxPro DR1,2013-02-04 13:03:00,
2013-02-04 08:08:00,18.0,11.5,29.95,SSE,156,6.0,15.0,75,0.00,,,0.00,51,WxPro DR1,2013-02-04 13:08:00,
2013-02-04 08:13:00,18.2,11.3,29.95,SW,225,2.0,17.0,74,0.00,,,0.00,72,WxPro DR1,2013-02-04 13:13:00,
2013-02-04 08:18:00,18.3,11.4,29.95,West,270,0.0,17.0,74,0.00,,,0.00,69,WxPro DR1,2013-02-04 13:18:00,
2013-02-04 08:23:00,18.3,11.1,29.95,WSW,255,10.0,16.0,73,0.00,,,0.00,77,WxPro DR1,2013-02-04 13:23:00,
2013-02-04 08:28:00,18.4,10.9,29.95,West,273,9.0,16.0,72,0.00,,,0.00,105,WxPro DR1,2013-02-04 13:28:00,
2013-02-04 08:33:00,18.5,11.0,29.95,SW,234,0.0,13.0,72,0.00,,,0.00,116,WxPro DR1,2013-02-04 13:33:00,
2013-02-04 08:38:00,18.7,10.9,29.95,WSW,242,1.0,13.0,71,0.00,,,0.00,141,WxPro DR1,2013-02-04 13:38:00,
2013-02-04 08:43:00,19.0,11.1,29.95,SW,233,1.0,13.0,71,0.00,,,0.00,125,WxPro DR1,2013-02-04 13:43:00,
2013-02-04 08:48:00,19.1,11.2,29.95,WSW,244,3.0,11.0,71,0.00,,,0.00,153,WxPro DR1,2013-02-04 13:48:00,
2013-02-04 08:53:00,19.3,11.2,29.96,WSW,249,3.0,12.0,70,0.00,,,0.00,155,WxPro DR1,2013-02-04 13:53:00,
2013-02-04 08:58:00,19.5,11.0,29.96,NW,314,5.0,12.0,69,0.00,,,0.00,134,WxPro DR1,2013-02-04 13:58:00,
2013-02-04 09:03:00,19.5,10.9,29.96,SSW,196,1.0,13.0,69,0.00,,,0.00,132,WxPro DR1,2013-02-04 14:03:00,
2013-02-04 09:08:00,19.3,10.5,29.96,WSW,239,6.0,13.0,68,0.00,,,0.00,132,WxPro DR1,2013-02-04 14:08:00,
2013-02-04 09:13:00,19.1,10.4,29.96,West,277,4.0,14.0,68,0.00,,,0.00,178,WxPro DR1,2013-02-04 14:13:00,
2013-02-04 09:18:00,19.2,10.4,29.96,SSW,201,6.0,14.0,68,0.00,,,0.00,162,WxPro DR1,2013-02-04 14:18:00,
2013-02-04 09:23:00,19.2,10.4,29.95,WSW,244,6.0,20.0,68,0.00,,,0.00,137,WxPro DR1,2013-02-04 14:23:00,
2013-02-04 09:28:00,19.3,10.8,29.95,SW,216,4.0,20.0,69,0.00,,,0.00,137,WxPro DR1,2013-02-04 14:28:00,
2013-02-04 09:33:00,19.5,11.0,29.95,NW,305,6.0,16.0,69,0.00,,,0.00,162,WxPro DR1,2013-02-04 14:33:00,
2013-02-04 09:38:00,19.7,10.9,29.95,SW,217,3.0,16.0,68,0.00,,,0.00,123,WxPro DR1,2013-02-04 14:38:00,
2013-02-04 09:43:00,19.7,11.2,29.95,WSW,242,10.0,18.0,69,0.00,,,0.00,120,WxPro DR1,2013-02-04 14:43:00,
2013-02-04 09:48:00,19.8,11.3,29.96,SW,228,0.0,18.0,69,0.00,,,0.00,83,WxPro DR1,2013-02-04 14:48:00,
2013-02-04 09:53:00,20.0,11.1,29.95,WSW,255,1.0,17.0,68,0.00,,,0.00,132,WxPro DR1,2013-02-04 14:53:00,
2013-02-04 09:58:00,19.9,11.4,29.95,WSW,238,0.0,17.0,69,0.00,,,0.00,144,WxPro DR1,2013-02-04 14:58:00,
2013-02-04 10:03:00,19.9,11.4,29.96,WNW,292,2.0,13.0,69,0.00,,,0.00,186,WxPro DR1,2013-02-04 15:03:00,
2013-02-04 10:08:00,19.9,11.3,29.96,WSW,257,3.0,15.0,69,0.00,,,0.00,171,WxPro DR1,2013-02-04 15:08:00,
2013-02-04 10:13:00,19.9,11.1,29.96,WSW,248,2.0,15.0,68,0.00,,,0.00,223,WxPro DR1,2013-02-04 15:13:00,
2013-02-04 10:18:00,20.1,11.2,29.96,South,171,6.0,14.0,68,0.00,,,0.00,188,WxPro DR1,2013-02-04 15:18:00,
2013-02-04 10:23:00,20.1,10.6,29.96,SW,218,3.0,14.0,66,0.00,,,0.00,172,WxPro DR1,2013-02-04 15:23:00,
2013-02-04 10:28:00,20.0,10.1,29.96,WNW,283,5.0,20.0,65,0.00,,,0.00,176,WxPro DR1,2013-02-04 15:28:00,
2013-02-04 10:33:00,19.9,10.0,29.96,WSW,248,4.0,20.0,65,0.00,,,0.00,167,WxPro DR1,2013-02-04 15:33:00,
2013-02-04 10:38:00,19.9,10.1,29.96,West,280,7.0,13.0,65,0.00,,,0.00,197,WxPro DR1,2013-02-04 15:38:00,
2013-02-04 10:43:00,20.0,9.5,29.96,WNW,298,7.0,14.0,63,0.00,,,0.00,272,WxPro DR1,2013-02-04 15:43:00,
2013-02-04 10:48:00,20.2,10.0,29.96,WNW,296,6.0,14.0,64,0.00,,,0.00,199,WxPro DR1,2013-02-04 15:48:00,
2013-02-04 10:53:00,20.4,10.1,29.96,WNW,292,7.0,16.0,64,0.00,,,0.00,269,WxPro DR1,2013-02-04 15:53:00,
2013-02-04 10:58:00,20.4,9.9,29.96,West,266,13.0,16.0,63,0.00,,,0.00,265,WxPro DR1,2013-02-04 15:58:00,
2013-02-04 11:03:00,20.6,9.6,29.96,SW,221,3.0,14.0,62,0.00,,,0.00,239,WxPro DR1,2013-02-04 16:03:00,
2013-02-04 11:08:00,20.6,9.6,29.96,SW,232,4.0,16.0,62,0.00,,,0.00,216,WxPro DR1,2013-02-04 16:08:00,
2013-02-04 11:13:00,20.5,9.9,29.95,WSW,243,9.0,16.0,63,0.00,,,0.00,209,WxPro DR1,2013-02-04 16:13:00,
2013-02-04 11:18:00,20.4,9.9,29.95,West,276,5.0,15.0,63,0.00,,,0.00,199,WxPro DR1,2013-02-04 16:18:00,
2013-02-04 11:23:00,20.4,9.5,29.96,WSW,237,5.0,19.0,62,0.00,,,0.00,183,WxPro DR1,2013-02-04 16:23:00,
2013-02-04 11:28:00,20.4,9.5,29.96,West,260,4.0,19.0,62,0.00,,,0.00,220,WxPro DR1,2013-02-04 16:28:00,
2013-02-04 11:33:00,20.5,9.8,29.96,NW,314,13.0,14.0,63,0.00,,,0.00,283,WxPro DR1,2013-02-04 16:33:00,
2013-02-04 11:38:00,20.7,9.8,29.95,West,261,10.0,14.0,62,0.00,,,0.00,262,WxPro DR1,2013-02-04 16:38:00,
2013-02-04 11:43:00,20.8,9.9,29.96,West,273,7.0,14.0,62,0.00,,,0.00,250,WxPro DR1,2013-02-04 16:43:00,
2013-02-04 11:48:00,21.0,10.0,29.96,South,182,7.0,14.0,62,0.00,,,0.00,251,WxPro DR1,2013-02-04 16:48:00,
2013-02-04 11:53:00,21.3,10.0,29.96,West,270,7.0,14.0,61,0.00,,,0.00,318,WxPro DR1,2013-02-04 16:53:00,
2013-02-04 11:58:00,21.5,9.8,29.95,West,272,12.0,15.0,60,0.00,,,0.00,209,WxPro DR1,2013-02-04 16:58:00,
2013-02-04 12:03:00,21.3,9.7,29.95,WNW,283,3.0,17.0,60,0.00,,,0.00,253,WxPro DR1,2013-02-04 17:03:00,
2013-02-04 12:08:00,21.3,9.6,29.95,NNW,329,9.0,17.0,60,0.00,,,0.00,221,WxPro DR1,2013-02-04 17:08:00,
2013-02-04 12:13:00,21.3,9.6,29.95,West,263,3.0,14.0,60,0.00,,,0.00,304,WxPro DR1,2013-02-04 17:13:00,
2013-02-04 12:18:00,21.5,9.8,29.94,WSW,252,7.0,14.0,60,0.00,,,0.00,584,WxPro DR1,2013-02-04 17:18:00,
2013-02-04 12:23:00,22.2,9.9,29.94,SW,215,6.0,13.0,59,0.00,,,0.00,327,WxPro DR1,2013-02-04 17:23:00,
2013-02-04 12:28:00,22.5,9.9,29.94,SW,228,5.0,13.0,58,0.00,,,0.00,411,WxPro DR1,2013-02-04 17:28:00,
2013-02-04 12:33:00,22.8,10.5,29.94,West,263,13.0,13.0,59,0.00,,,0.00,432,WxPro DR1,2013-02-04 17:33:00,
2013-02-04 12:38:00,23.0,10.1,29.94,WSW,250,6.0,14.0,57,0.00,,,0.00,385,WxPro DR1,2013-02-04 17:38:00,
2013-02-04 12:43:00,23.0,10.0,29.93,SSW,207,7.0,16.0,57,0.00,,,0.00,383,WxPro DR1,2013-02-04 17:43:00,
2013-02-04 12:48:00,22.9,9.2,29.93,WSW,257,3.0,16.0,55,0.00,,,0.00,406,WxPro DR1,2013-02-04 17:48:00,
2013-02-04 12:53:00,23.0,8.4,29.93,SW,217,6.0,15.0,53,0.00,,,0.00,392,WxPro DR1,2013-02-04 17:53:00,
2013-02-04 12:58:00,22.6,8.5,29.93,West,259,15.0,19.0,54,0.00,,,0.00,355,WxPro DR1,2013-02-04 17:58:00,
2013-02-04 13:03:00,22.5,8.4,29.93,WSW,250,5.0,19.0,54,0.00,,,0.00,318,WxPro DR1,2013-02-04 18:03:00,
2013-02-04 13:08:00,22.5,8.8,29.93,SW,223,3.0,20.0,55,0.00,,,0.00,329,WxPro DR1,2013-02-04 18:08:00,
2013-02-04 13:13:00,22.4,9.1,29.93,WSW,245,4.0,20.0,56,0.00,,,0.00,330,WxPro DR1,2013-02-04 18:13:00,
2013-02-04 13:18:00,22.3,9.1,29.93,WNW,286,4.0,19.0,56,0.00,,,0.00,371,WxPro DR1,2013-02-04 18:18:00,
2013-02-04 13:23:00,22.4,9.2,29.93,WSW,245,3.0,19.0,56,0.00,,,0.00,359,WxPro DR1,2013-02-04 18:23:00,
2013-02-04 13:28:00,22.4,9.7,29.93,West,276,5.0,17.0,57,0.00,,,0.00,352,WxPro DR1,2013-02-04 18:28:00,
2013-02-04 13:33:00,22.3,9.4,29.93,SSW,197,4.0,14.0,57,0.00,,,0.00,244,WxPro DR1,2013-02-04 18:33:00,
2013-02-04 13:38:00,22.2,9.7,29.93,WNW,302,1.0,15.0,58,0.00,,,0.00,287,WxPro DR1,2013-02-04 18:38:00,
2013-02-04 13:43:00,22.3,10.4,29.93,West,275,7.0,15.0,60,0.00,,,0.00,299,WxPro DR1,2013-02-04 18:43:00,
2013-02-04 13:48:00,22.4,10.3,29.93,SW,223,4.0,13.0,59,0.00,,,0.00,255,WxPro DR1,2013-02-04 18:48:00,
2013-02-04 13:53:00,22.4,10.2,29.93,SW,214,1.0,13.0,59,0.00,,,0.00,271,WxPro DR1,2013-02-04 18:53:00,
2013-02-04 13:58:00,22.4,10.6,29.93,West,279,6.0,11.0,60,0.00,,,0.00,336,WxPro DR1,2013-02-04 18:58:00,
2013-02-04 14:03:00,22.7,10.7,29.92,West,273,7.0,12.0,59,0.00,,,0.00,253,WxPro DR1,2013-02-04 19:03:00,
2013-02-04 14:08:00,22.5,10.9,29.93,WSW,253,1.0,12.0,60,0.00,,,0.00,265,WxPro DR1,2013-02-04 19:08:00,
2013-02-04 14:13:00,22.1,10.8,29.93,WSW,247,0.0,11.0,61,0.00,,,0.00,223,WxPro DR1,2013-02-04 19:13:00,
2013-02-04 14:18:00,22.0,11.0,29.93,South,186,3.0,10.0,62,0.00,,,0.00,232,WxPro DR1,2013-02-04 19:18:00,
2013-02-04 14:23:00,22.2,11.2,29.93,South,190,2.0,9.0,62,0.00,,,0.00,197,WxPro DR1,2013-02-04 19:23:00,
2013-02-04 14:28:00,22.2,11.1,29.93,WNW,297,5.0,10.0,62,0.00,,,0.00,188,WxPro DR1,2013-02-04 19:28:00,
2013-02-04 14:33:00,22.1,11.1,29.93,SSW,213,2.0,11.0,62,0.00,,,0.00,174,WxPro DR1,2013-02-04 19:33:00,
2013-02-04 14:38:00,21.9,10.9,29.93,SSW,198,6.0,14.0,62,0.00,,,0.00,162,WxPro DR1,2013-02-04 19:38:00,
2013-02-04 14:43:00,21.7,10.8,29.93,West,259,7.0,14.0,62,0.00,,,0.00,141,WxPro DR1,2013-02-04 19:43:00,
2013-02-04 14:48:00,21.7,10.7,29.93,WSW,254,2.0,11.0,62,0.00,,,0.00,128,WxPro DR1,2013-02-04 19:48:00,
2013-02-04 14:53:00,21.6,10.6,29.93,SW,226,6.0,9.0,62,0.00,,,0.00,127,WxPro DR1,2013-02-04 19:53:00,
2013-02-04 14:58:00,21.6,10.3,29.93,SW,218,1.0,10.0,61,0.00,,,0.00,118,WxPro DR1,2013-02-04 19:58:00,
2013-02-04 15:03:00,21.5,10.5,29.93,SW,226,7.0,10.0,62,0.00,,,0.00,105,WxPro DR1,2013-02-04 20:03:00,
2013-02-04 15:08:00,21.5,10.5,29.93,SW,218,4.0,12.0,62,0.00,,,0.00,88,WxPro DR1,2013-02-04 20:08:00,
2013-02-04 15:13:00,21.5,10.7,29.94,WSW,240,4.0,13.0,62,0.00,,,0.00,79,WxPro DR1,2013-02-04 20:13:00,
2013-02-04 15:18:00,21.5,10.5,29.94,West,274,2.0,13.0,62,0.00,,,0.00,81,WxPro DR1,2013-02-04 20:18:00,
2013-02-04 15:23:00,21.4,10.5,29.94,WSW,244,3.0,11.0,62,0.00,,,0.00,81,WxPro DR1,2013-02-04 20:23:00,
2013-02-04 15:28:00,21.4,11.1,29.94,WSW,253,5.0,10.0,64,0.00,,,0.00,79,WxPro DR1,2013-02-04 20:28:00,
2013-02-04 15:33:00,21.4,10.8,29.94,WSW,250,2.0,10.0,63,0.00,,,0.00,72,WxPro DR1,2013-02-04 20:33:00,
2013-02-04 15:38:00,21.2,10.6,29.94,West,268,1.0,10.0,63,0.00,,,0.00,74,WxPro DR1,2013-02-04 20:38:00,
2013-02-04 15:43:00,21.2,10.6,29.94,West,265,1.0,10.0,63,0.00,,,0.00,67,WxPro DR1,2013-02-04 20:43:00,
2013-02-04 15:48:00,21.2,10.6,29.94,WSW,245,2.0,11.0,63,0.00,,,0.00,62,WxPro DR1,2013-02-04 20:48:00,
2013-02-04 15:53:00,21.2,10.6,29.94,WNW,285,3.0,11.0,63,0.00,,,0.00,63,WxPro DR1,2013-02-04 20:53:00,
2013-02-04 15:58:00,21.1,10.6,29.94,WSW,241,11.0,13.0,63,0.00,,,0.00,54,WxPro DR1,2013-02-04 20:58:00,
2013-02-04 16:03:00,21.0,10.8,29.94,SW,224,0.0,13.0,64,0.00,,,0.00,60,WxPro DR1,2013-02-04 21:03:00,
2013-02-04 16:08:00,21.0,11.1,29.94,WSW,255,4.0,10.0,65,0.00,,,0.00,60,WxPro DR1,2013-02-04 21:08:00,
2013-02-04 16:13:00,21.1,10.8,29.93,WSW,252,5.0,7.0,64,0.00,,,0.00,67,WxPro DR1,2013-02-04 21:13:00,
2013-02-04 16:18:00,21.0,11.2,29.93,SW,232,1.0,9.0,65,0.00,,,0.00,46,WxPro DR1,2013-02-04 21:18:00,
2013-02-04 16:23:00,21.0,11.4,29.93,SSW,208,4.0,9.0,66,0.00,,,0.00,28,WxPro DR1,2013-02-04 21:23:00,
2013-02-04 16:28:00,20.8,10.9,29.93,WSW,256,4.0,7.0,65,0.00,,,0.00,23,WxPro DR1,2013-02-04 21:28:00,
2013-02-04 16:33:00,20.7,10.8,29.93,WSW,254,1.0,8.0,65,0.00,,,0.00,18,WxPro DR1,2013-02-04 21:33:00,
2013-02-04 16:38:00,20.6,11.1,29.93,SW,230,0.0,8.0,66,0.00,,,0.00,12,WxPro DR1,2013-02-04 21:38:00,
2013-02-04 16:43:00,20.6,11.1,29.93,SSW,209,1.0,7.0,66,0.00,,,0.00,11,WxPro DR1,2013-02-04 21:43:00,
2013-02-04 16:48:00,20.6,12.1,29.93,SSW,206,0.0,6.0,69,0.00,,,0.00,12,WxPro DR1,2013-02-04 21:48:00,
2013-02-04 16:53:00,20.5,11.9,29.93,SW,215,0.0,6.0,69,0.00,,,0.00,11,WxPro DR1,2013-02-04 21:53:00,
2013-02-04 16:58:00,20.4,12.2,29.93,WSW,246,0.0,4.0,70,0.00,,,0.00,11,WxPro DR1,2013-02-04 21:58:00,
2013-02-04 17:03:00,20.3,12.4,29.93,SSW,205,0.0,6.0,71,0.00,,,0.00,7,WxPro DR1,2013-02-04 22:03:00,
2013-02-04 17:08:00,20.2,12.6,29.93,WSW,244,3.0,6.0,72,0.00,,,0.00,5,WxPro DR1,2013-02-04 22:08:00,
2013-02-04 17:13:00,20.2,12.6,29.93,WSW,241,0.0,6.0,72,0.00,,,0.00,5,WxPro DR1,2013-02-04 22:13:00,
2013-02-04 17:18:00,20.1,12.3,29.92,WSW,241,1.0,4.0,71,0.00,,,0.00,0,WxPro DR1,2013-02-04 22:18:00,
2013-02-04 17:23:00,20.1,12.2,29.92,SW,225,3.0,5.0,71,0.00,,,0.00,0,WxPro DR1,2013-02-04 22:23:00,
2013-02-04 17:28:00,20.1,12.2,29.93,WSW,252,2.0,7.0,71,0.00,,,0.00,0,WxPro DR1,2013-02-04 22:28:00,
2013-02-04 17:33:00,20.1,12.4,29.93,West,277,0.0,7.0,72,0.00,,,0.00,0,WxPro DR1,2013-02-04 22:33:00,
2013-02-04 17:38:00,20.0,12.5,29.93,SW,236,0.0,9.0,72,0.00,,,0.00,0,WxPro DR1,2013-02-04 22:38:00,
2013-02-04 17:43:00,19.9,12.4,29.92,SW,229,0.0,9.0,72,0.00,,,0.00,0,WxPro DR1,2013-02-04 22:43:00,
2013-02-04 17:48:00,19.8,12.3,29.93,WSW,247,2.0,6.0,72,0.00,,,0.00,0,WxPro DR1,2013-02-04 22:48:00,
2013-02-04 17:53:00,19.7,12.2,29.93,SW,236,0.0,6.0,72,0.00,,,0.00,0,WxPro DR1,2013-02-04 22:53:00,
2013-02-04 17:58:00,19.7,12.2,29.93,SSW,210,1.0,6.0,72,0.00,,,0.00,0,WxPro DR1,2013-02-04 22:58:00,
2013-02-04 18:03:00,19.7,12.2,29.93,SW,215,0.0,9.0,72,0.00,,,0.00,0,WxPro DR1,2013-02-04 23:03:00,
2013-02-04 18:08:00,19.7,12.4,29.93,SW,224,0.0,9.0,73,0.00,,,0.00,0,WxPro DR1,2013-02-04 23:08:00,
2013-02-04 18:13:00,19.7,12.5,29.93,SW,217,0.0,6.0,73,0.00,,,0.00,0,WxPro DR1,2013-02-04 23:13:00,
2013-02-04 18:18:00,19.7,12.5,29.93,SW,221,2.0,6.0,73,0.00,,,0.00,0,WxPro DR1,2013-02-04 23:18:00,
2013-02-04 18:23:00,19.7,12.5,29.93,SW,218,1.0,6.0,73,0.00,,,0.00,0,WxPro DR1,2013-02-04 23:23:00,
2013-02-04 18:28:00,19.7,12.5,29.93,SW,225,2.0,6.0,73,0.00,,,0.00,0,WxPro DR1,2013-02-04 23:28:00,
2013-02-04 18:33:00,19.7,12.8,29.93,SSW,202,3.0,5.0,74,0.00,,,0.00,0,WxPro DR1,2013-02-04 23:33:00,
2013-02-04 18:38:00,19.7,12.8,29.93,SW,230,2.0,5.0,74,0.00,,,0.00,0,WxPro DR1,2013-02-04 23:38:00,
2013-02-04 18:43:00,19.7,12.8,29.93,SW,216,3.0,5.0,74,0.00,,,0.00,0,WxPro DR1,2013-02-04 23:43:00,
2013-02-04 18:48:00,19.7,13.1,29.93,SSW,211,0.0,4.0,75,0.00,,,0.00,0,WxPro DR1,2013-02-04 23:48:00,
2013-02-04 18:53:00,19.7,13.1,29.93,SSW,211,0.0,4.0,75,0.00,,,0.00,0,WxPro DR1,2013-02-04 23:53:00,
2013-02-04 18:58:00,19.7,13.1,29.93,SW,221,2.0,6.0,75,0.00,,,0.00,0,WxPro DR1,2013-02-04 23:58:00,
2013-02-04 19:03:00,19.7,13.1,29.93,SSW,198,0.0,6.0,75,0.00,,,0.00,0,WxPro DR1,2013-02-05 00:03:00,
2013-02-04 19:08:00,19.7,12.8,29.93,SW,219,0.0,5.0,74,0.00,,,0.00,0,WxPro DR1,2013-02-05 00:08:00,
2013-02-04 19:13:00,19.8,13.2,29.93,SSW,208,3.0,5.0,75,0.00,,,0.00,0,WxPro DR1,2013-02-05 00:13:00,
2013-02-04 19:18:00,19.8,13.2,29.93,SSW,194,0.0,3.0,75,0.00,,,0.00,0,WxPro DR1,2013-02-05 00:18:00,
2013-02-04 19:23:00,19.8,13.2,29.93,SSW,205,2.0,5.0,75,0.00,,,0.00,0,WxPro DR1,2013-02-05 00:23:00,
2013-02-04 19:28:00,19.8,13.2,29.93,SW,230,2.0,5.0,75,0.00,,,0.00,0,WxPro DR1,2013-02-05 00:28:00,
2013-02-04 19:33:00,19.9,13.2,29.93,SSW,213,2.0,4.0,75,0.00,,,0.00,0,WxPro DR1,2013-02-05 00:33:00,
2013-02-04 19:38:00,19.9,13.3,29.93,SW,214,2.0,4.0,75,0.00,,,0.00,0,WxPro DR1,2013-02-05 00:38:00,
2013-02-04 19:43:00,19.9,13.6,29.93,SW,215,2.0,3.0,76,0.00,,,0.00,0,WxPro DR1,2013-02-05 00:43:00,
2013-02-04 19:48:00,19.9,13.6,29.94,SW,225,3.0,4.0,76,0.00,,,0.00,0,WxPro DR1,2013-02-05 00:48:00,
2013-02-04 19:53:00,19.9,13.6,29.94,SSW,198,0.0,4.0,76,0.00,,,0.00,0,WxPro DR1,2013-02-05 00:53:00,
2013-02-04 19:58:00,19.9,13.6,29.94,SSW,209,2.0,3.0,76,0.00,,,0.00,0,WxPro DR1,2013-02-05 00:58:00,
2013-02-04 20:03:00,19.9,13.6,29.93,SW,216,0.0,4.0,76,0.00,,,0.00,0,WxPro DR1,2013-02-05 01:03:00,
2013-02-04 20:08:00,19.9,13.6,29.94,SW,215,0.0,4.0,76,0.00,,,0.00,0,WxPro DR1,2013-02-05 01:08:00,
2013-02-04 20:13:00,19.9,13.6,29.94,SW,218,0.0,4.0,76,0.00,,,0.00,0,WxPro DR1,2013-02-05 01:13:00,
2013-02-04 20:18:00,20.0,13.7,29.93,SSW,209,1.0,4.0,76,0.00,,,0.00,0,WxPro DR1,2013-02-05 01:18:00,
2013-02-04 20:23:00,20.0,13.7,29.93,SSW,211,0.0,3.0,76,0.00,,,0.00,0,WxPro DR1,2013-02-05 01:23:00,
2013-02-04 20:28:00,20.0,13.7,29.93,SSW,210,0.0,3.0,76,0.00,,,0.00,0,WxPro DR1,2013-02-05 01:28:00,
2013-02-04 20:33:00,20.0,14.0,29.93,South,184,2.0,3.0,77,0.00,,,0.00,0,WxPro DR1,2013-02-05 01:33:00,
2013-02-04 20:38:00,20.1,14.0,29.93,SSW,209,0.0,3.0,77,0.00,,,0.00,0,WxPro DR1,2013-02-05 01:38:00,
2013-02-04 20:43:00,20.1,13.8,29.93,South,180,0.0,3.0,76,0.00,,,0.00,0,WxPro DR1,2013-02-05 01:43:00,
2013-02-04 20:48:00,20.1,13.8,29.93,South,180,0.0,2.0,76,0.00,,,0.00,0,WxPro DR1,2013-02-05 01:48:00,
2013-02-04 20:53:00,20.2,13.9,29.93,South,181,0.0,2.0,76,0.00,,,0.00,0,WxPro DR1,2013-02-05 01:53:00,
2013-02-04 20:58:00,20.2,14.1,29.93,South,182,0.0,2.0,77,0.00,,,0.00,0,WxPro DR1,2013-02-05 01:58:00,
2013-02-04 21:03:00,20.2,14.2,29.93,South,184,0.0,3.0,77,0.00,,,0.00,0,WxPro DR1,2013-02-05 02:03:00,
2013-02-04 21:08:00,20.2,14.2,29.93,South,184,2.0,3.0,77,0.00,,,0.00,0,WxPro DR1,2013-02-05 02:08:00,
2013-02-04 21:13:00,20.2,14.2,29.93,South,188,0.0,3.0,77,0.00,,,0.00,0,WxPro DR1,2013-02-05 02:13:00,
2013-02-04 21:18:00,20.2,14.1,29.93,South,188,0.0,3.0,77,0.00,,,0.00,0,WxPro DR1,2013-02-05 02:18:00,
2013-02-04 21:23:00,20.2,14.4,29.93,South,190,0.0,2.0,78,0.00,,,0.00,0,WxPro DR1,2013-02-05 02:23:00,
2013-02-04 21:28:00,20.2,14.4,29.93,South,190,0.0,2.0,78,0.00,,,0.00,0,WxPro DR1,2013-02-05 02:28:00,
2013-02-04 21:33:00,20.2,14.4,29.93,South,181,0.0,3.0,78,0.00,,,0.00,0,WxPro DR1,2013-02-05 02:33:00,
2013-02-04 21:38:00,20.2,14.4,29.93,South,180,0.0,3.0,78,0.00,,,0.00,0,WxPro DR1,2013-02-05 02:38:00,
2013-02-04 21:43:00,20.2,14.4,29.93,South,180,0.0,3.0,78,0.00,,,0.00,0,WxPro DR1,2013-02-05 02:43:00,
2013-02-04 21:48:00,20.2,14.8,29.93,South,182,0.0,2.0,79,0.00,,,0.00,0,WxPro DR1,2013-02-05 02:48:00,
2013-02-04 21:53:00,20.2,14.7,29.93,SW,216,0.0,4.0,79,0.00,,,0.00,0,WxPro DR1,2013-02-05 02:53:00,
2013-02-04 21:58:00,20.2,14.8,29.93,SW,217,1.0,4.0,79,0.00,,,0.00,0,WxPro DR1,2013-02-05 02:58:00,
2013-02-04 22:03:00,20.2,14.5,29.93,WSW,245,1.0,4.0,78,0.00,,,0.00,0,WxPro DR1,2013-02-05 03:03:00,
2013-02-04 22:08:00,20.2,14.5,29.93,SW,229,0.0,4.0,78,0.00,,,0.00,0,WxPro DR1,2013-02-05 03:08:00,
2013-02-04 22:13:00,20.2,14.5,29.93,SW,225,0.0,4.0,78,0.00,,,0.00,0,WxPro DR1,2013-02-05 03:13:00,
2013-02-04 22:18:00,20.2,14.5,29.93,SW,226,0.0,3.0,78,0.00,,,0.00,0,WxPro DR1,2013-02-05 03:18:00,
2013-02-04 22:23:00,20.2,14.5,29.93,SW,227,0.0,3.0,78,0.00,,,0.00,0,WxPro DR1,2013-02-05 03:23:00,
2013-02-04 22:28:00,20.2,14.8,29.93,SW,226,2.0,3.0,79,0.00,,,0.00,0,WxPro DR1,2013-02-05 03:28:00,
2013-02-04 22:33:00,20.2,14.8,29.93,SW,218,2.0,2.0,79,0.00,,,0.00,0,WxPro DR1,2013-02-05 03:33:00,
2013-02-04 22:38:00,20.2,14.5,29.93,SW,215,0.0,3.0,78,0.00,,,0.00,0,WxPro DR1,2013-02-05 03:38:00,
2013-02-04 22:43:00,20.3,14.5,29.93,SW,216,0.0,3.0,78,0.00,,,0.00,0,WxPro DR1,2013-02-05 03:43:00,
2013-02-04 22:48:00,20.3,14.8,29.93,SW,215,0.0,2.0,79,0.00,,,0.00,0,WxPro DR1,2013-02-05 03:48:00,
2013-02-04 22:53:00,20.3,14.8,29.93,SW,215,0.0,2.0,79,0.00,,,0.00,0,WxPro DR1,2013-02-05 03:53:00,
2013-02-04 22:58:00,20.3,14.8,29.94,SW,215,0.0,1.0,79,0.00,,,0.00,0,WxPro DR1,2013-02-05 03:58:00,
2013-02-04 23:03:00,20.2,14.8,29.94,SW,216,0.0,2.0,79,0.00,,,0.00,0,WxPro DR1,2013-02-05 04:03:00,
2013-02-04 23:08:00,20.2,14.8,29.94,SW,215,0.0,3.0,79,0.00,,,0.00,0,WxPro DR1,2013-02-05 04:08:00,
2013-02-04 23:13:00,20.2,14.8,29.94,SW,215,0.0,3.0,79,0.00,,,0.00,0,WxPro DR1,2013-02-05 04:13:00,
2013-02-04 23:18:00,20.2,14.8,29.94,SW,215,0.0,2.0,79,0.00,,,0.00,0,WxPro DR1,2013-02-05 04:18:00,
2013-02-04 23:23:00,20.2,14.8,29.94,SW,215,0.0,2.0,79,0.00,,,0.00,0,WxPro DR1,2013-02-05 04:23:00,
2013-02-04 23:28:00,20.2,14.8,29.94,SW,215,0.0,2.0,79,0.00,,,0.00,0,WxPro DR1,2013-02-05 04:28:00,
2013-02-04 23:33:00,20.2,14.8,29.94,SW,215,0.0,2.0,79,0.00,,,0.00,0,WxPro DR1,2013-02-05 04:33:00,
2013-02-04 23:38:00,20.2,14.8,29.94,SW,215,0.0,2.0,79,0.00,,,0.00,0,WxPro DR1,2013-02-05 04:38:00,
2013-02-04 23:43:00,20.2,14.8,29.94,SW,215,0.0,2.0,79,0.00,,,0.00,0,WxPro DR1,2013-02-05 04:43:00,
2013-02-04 23:48:00,20.3,14.8,29.94,SW,216,0.0,2.0,79,0.00,,,0.00,0,WxPro DR1,2013-02-05 04:48:00,
2013-02-04 23:53:00,20.2,15.1,29.94,SW,215,0.0,2.0,80,0.00,,,0.00,0,WxPro DR1,2013-02-05 04:53:00,
2013-02-04 23:58:00,20.2,15.0,29.94,SW,215,0.0,1.0,80,0.00,,,0.00,0,WxPro DR1,2013-02-05 04:58:00,